Flag for Spain Weather past 2 weeks in Las Palmas, Canary Islands, Spain

Now
64 °F

Passing clouds.


Feels Like: 64 °F
Forecast: N/A
Wind: 6 mph from North

Location: Las Palmas De Gran Canaria / Gando

Current Time: Dec 18, 2014 at 8:38:24 PM

Latest Report: Dec 18, 2014 at 8:00 PM


Visibility: N/A

Pressure: 30.27 "Hg

Humidity: 78%

Dew point: 57 °F

Location of Las PalmasLocation

Historic Weather in Las Palmas — Graph

°F

Las Palmas temperature yesterday

Maximum temperature yesterday: 68 °F (at 12:30 PM)
Minimum temperature yesterday: 63 °F (at 2:00 AM)
Average temperature yesterday: 65 °F

Past Weeks' High & Low Weather Summary

 TemperatureHumidityPressure
High73 °F (Dec 8, 1:00 PM)94% (Dec 13, 6:30 PM)30.36 "Hg (Dec 13, 6:30 PM)
Low59 °F (Dec 13, 8:00 AM)36% (Dec 12, 2:00 PM)30.07 "Hg (Dec 3, 7:00 PM)
Average66 °F67%30.24 "Hg
* Reported Dec 3 7:00 PM — Dec 18 7:30 PM, Las Palmas, Weather by CustomWeather, © 2014

Note: Actual official high and low records may vary slightly from our data, if they occured in-between our weather recording intervals... More about our weather records

Advertising

Las Palmas weather history for previous 24 hours

 ConditionsComfort  
Time TempWeatherWind HumidityBarometerVisibility
7:30 PM
Dec 18
64 °FPassing clouds.5 mph78%30.27 "HgN/A
7:00 PM66 °FPassing clouds.7 mph73%30.24 "HgN/A
6:30 PM66 °FPassing clouds.7 mph73%30.24 "HgN/A
6:00 PM66 °FPassing clouds.8 mph73%30.24 "HgN/A
5:30 PM68 °FPassing clouds.12 mph69%30.24 "HgN/A
5:00 PM68 °FPassing clouds.13 mph64%30.24 "HgN/A
4:30 PM70 °FPassing clouds.13 mph64%30.21 "HgN/A
4:00 PM70 °FPassing clouds.13 mph69%30.24 "HgN/A
3:30 PM70 °FPartly sunny.12 mph69%30.24 "HgN/A
3:00 PM70 °FPartly sunny.10 mph64%30.24 "HgN/A
2:30 PM70 °FPartly sunny.8 mph64%30.24 "HgN/A
2:00 PM70 °FPartly sunny.10 mph69%30.24 "HgN/A
1:30 PM68 °FBroken clouds.10 mph73%30.24 "HgN/A
1:00 PM70 °FBroken clouds.9 mph64%30.27 "HgN/A
12:30 PM70 °FBroken clouds.9 mph60%30.27 "HgN/A
12:00 PM70 °FPartly sunny.10 mph60%30.30 "HgN/A
11:30 AM70 °FPartly sunny.9 mph60%30.30 "HgN/A
11:00 AM70 °FPartly sunny.10 mph64%30.30 "HgN/A
10:30 AM68 °FPartly sunny.12 mph69%30.30 "HgN/A
10:00 AM68 °FPartly sunny.10 mph64%30.30 "HgN/A
9:30 AM66 °FPartly sunny.9 mph73%30.27 "HgN/A
9:00 AM66 °FPartly sunny.9 mph73%30.27 "HgN/A
8:30 AM64 °FPartly sunny.10 mph78%30.27 "HgN/A
8:00 AM64 °FPartly sunny.10 mph78%30.27 "HgN/A
7:30 AM64 °FPartly cloudy.10 mph78%30.24 "HgN/A
7:00 AM64 °FPassing clouds.10 mph78%30.24 "HgN/A
6:30 AM64 °FPassing clouds.12 mph78%30.24 "HgN/A
6:00 AM64 °FPassing clouds.10 mph78%30.24 "HgN/A
5:30 AM64 °FPassing clouds.9 mph78%30.24 "HgN/A
5:00 AM64 °FPassing clouds.10 mph78%30.24 "HgN/A
4:30 AM64 °FPassing clouds.12 mph73%30.24 "HgN/A
3:30 AM66 °FPassing clouds.17 mph73%30.24 "HgN/A
3:00 AM64 °FPassing clouds.16 mph78%30.24 "HgN/A
2:30 AM66 °FPassing clouds.16 mph78%30.24 "HgN/A
2:00 AM66 °FPassing clouds.15 mph78%30.24 "HgN/A
1:30 AM64 °FPassing clouds.15 mph83%30.24 "HgN/A
1:00 AM64 °FPassing clouds.15 mph88%30.24 "HgN/A
12:30 AM64 °FPassing clouds.15 mph88%30.24 "HgN/A
12:00 AM64 °FPassing clouds.16 mph88%30.27 "HgN/A
11:30 PM
Dec 17
64 °FPassing clouds.18 mph88%30.27 "HgN/A
11:00 PM64 °FPassing clouds.15 mph88%30.27 "HgN/A
10:30 PM64 °FPassing clouds.15 mph88%30.27 "HgN/A
10:00 PM64 °FPassing clouds.18 mph88%30.27 "HgN/A
9:30 PM64 °FPassing clouds.16 mph88%30.27 "HgN/A
9:00 PM64 °FPassing clouds.20 mph88%30.27 "HgN/A
8:30 PM64 °FPassing clouds.9 mph88%30.27 "HgN/A
8:00 PM64 °FPassing clouds.24 mph88%30.27 "HgN/A
Weather by CustomWeather, © 2014

See weather overviewHow to use our weather pages